• In Czech Republic
  • List of Countries
  • For 7 days
  • Water Temperature
  • Satellite Maps
  • Weather Map
  • Weather Widgets
  • user-avatar
    Login

    Hourly Weather Korçe

    Today, 22 January, Monday

    Time Temperature Precipitation Wind Pressure Humidity
    00:00 +2°C° 0.2 mm 2 mps 656 mmHg 95%
    01:00 +1°C° 0.2 mm 3 mps 656 mmHg 95%
    02:00 0°C° 0.4 mm 3 mps 656 mmHg 94%
    03:00 0°C° 0.4 mm 3 mps 656 mmHg 93%
    04:00 -1°C° 0.4 mm 3 mps 656 mmHg 91%
    05:00 -1°C° 0.1 mm 3 mps 657 mmHg 91%
    06:00 -2°C° 0.1 mm 3 mps 657 mmHg 90%
    07:00 -2°C° 0.1 mm 3 mps 658 mmHg 89%
    08:00 -2°C° 0 mm 3 mps 658 mmHg 82%
    09:00 -1°C° 0 mm 3 mps 659 mmHg 76%
    10:00 0°C° 0 mm 3 mps 660 mmHg 69%
    11:00 0°C° 0 mm 3 mps 660 mmHg 67%
    12:00 +1°C° 0 mm 3 mps 660 mmHg 65%
    13:00 0°C° 0 mm 4 mps 660 mmHg 63%
    14:00 0°C° 0 mm 3 mps 661 mmHg 65%
    15:00 0°C° 0 mm 3 mps 661 mmHg 67%
    16:00 +1°C° 0 mm 2 mps 661 mmHg 69%
    17:00 -1°C° 0 mm 2 mps 661 mmHg 72%
    18:00 -2°C° 0 mm 2 mps 661 mmHg 75%
    19:00 -3°C° 0 mm 2 mps 662 mmHg 77%
    20:00 -3°C° 0 mm 2 mps 662 mmHg 77%
    21:00 -3°C° 0 mm 2 mps 662 mmHg 77%
    22:00 -4°C° 0 mm 2 mps 663 mmHg 76%
    23:00 -2°C° 0 mm 1 mps 663 mmHg 75%

    Tomorrow, 23 January, Tuesday

    Time Temperature Precipitation Wind Pressure Humidity
    00:00 -2°C° 0 mm 1 mps 663 mmHg 75%
    01:00 -2°C° 0 mm 1 mps 663 mmHg 74%
    02:00 -1°C° 0 mm 1 mps 663 mmHg 73%
    03:00 -1°C° 0 mm 1 mps 663 mmHg 72%
    04:00 -1°C° 0 mm 1 mps 664 mmHg 70%
    05:00 -1°C° 0 mm 1 mps 664 mmHg 70%
    06:00 -1°C° 0 mm 1 mps 664 mmHg 69%
    07:00 -1°C° 0 mm 1 mps 665 mmHg 68%
    08:00 0°C° 0 mm 1 mps 665 mmHg 63%
    09:00 +1°C° 0 mm 2 mps 666 mmHg 58%
    10:00 +2°C° 0 mm 2 mps 667 mmHg 53%
    11:00 +4°C° 0 mm 1 mps 667 mmHg 50%
    12:00 +4°C° 0 mm 1 mps 667 mmHg 47%
    13:00 +5°C° 0 mm 1 mps 667 mmHg 44%
    14:00 +5°C° 0 mm 1 mps 667 mmHg 49%
    15:00 +4°C° 0 mm 1 mps 667 mmHg 53%
    16:00 +3°C° 0 mm 1 mps 667 mmHg 57%
    17:00 +2°C° 0 mm 1 mps 667 mmHg 60%
    18:00 +1°C° 0 mm 1 mps 668 mmHg 63%
    19:00 -2°C° 0 mm 2 mps 668 mmHg 65%
    20:00 -2°C° 0 mm 2 mps 668 mmHg 65%
    21:00 -2°C° 0 mm 2 mps 669 mmHg 66%
    22:00 -2°C° 0 mm 2 mps 669 mmHg 66%
    23:00 -3°C° 0 mm 2 mps 669 mmHg 67%

    Day after tomorrow, 24 January, Wednesday

    Time Temperature Precipitation Wind Pressure Humidity
    00:00 -3°C° 0 mm 2 mps 669 mmHg 69%
    01:00 -4°C° 0 mm 2 mps 669 mmHg 70%
    02:00 -4°C° 0 mm 2 mps 670 mmHg 71%
    03:00 -4°C° 0 mm 2 mps 670 mmHg 72%
    04:00 -4°C° 0 mm 2 mps 670 mmHg 73%
    05:00 -4°C° 0 mm 2 mps 670 mmHg 72%
    06:00 -4°C° 0 mm 2 mps 671 mmHg 72%
    07:00 -5°C° 0 mm 2 mps 671 mmHg 72%
    08:00 -3°C° 0 mm 2 mps 672 mmHg 64%
    09:00 -2°C° 0 mm 2 mps 673 mmHg 57%
    10:00 +1°C° 0 mm 2 mps 673 mmHg 50%
    11:00 +1°C° 0 mm 2 mps 673 mmHg 47%
    12:00 +2°C° 0 mm 2 mps 674 mmHg 43%
    13:00 +3°C° 0 mm 2 mps 674 mmHg 40%
    14:00 +3°C° 0 mm 1 mps 674 mmHg 44%
    15:00 +3°C° 0 mm 1 mps 673 mmHg 49%
    16:00 +2°C° 0 mm 1 mps 673 mmHg 53%
    17:00 +1°C° 0 mm 1 mps 673 mmHg 55%
    18:00 0°C° 0 mm 1 mps 673 mmHg 58%
    19:00 -1°C° 0 mm 1 mps 673 mmHg 61%
    20:00 -1°C° 0 mm 1 mps 673 mmHg 61%
    21:00 -2°C° 0 mm 1 mps 673 mmHg 62%
    22:00 -2°C° 0 mm 1 mps 673 mmHg 62%
    23:00 -2°C° 0 mm 1 mps 673 mmHg 62%

    25 January, Thursday

    Time Temperature Precipitation Wind Pressure Humidity
    00:00 -2°C° 0 mm 1 mps 673 mmHg 61%
    01:00 -2°C° 0 mm 1 mps 673 mmHg 60%
    02:00 -2°C° 0 mm 1 mps 672 mmHg 59%
    03:00 -2°C° 0 mm 1 mps 672 mmHg 57%
    04:00 -2°C° 0 mm 1 mps 672 mmHg 56%
    05:00 -2°C° 0 mm 1 mps 672 mmHg 54%
    06:00 -2°C° 0 mm 1 mps 672 mmHg 52%
    07:00 -2°C° 0 mm 1 mps 672 mmHg 50%
    08:00 0°C° 0 mm 1 mps 672 mmHg 46%
    09:00 +2°C° 0 mm 1 mps 673 mmHg 41%
    10:00 +3°C° 0 mm 0 mps 673 mmHg 36%
    11:00 +5°C° 0 mm 1 mps 673 mmHg 36%
    12:00 +5°C° 0 mm 1 mps 672 mmHg 36%
    13:00 +6°C° 0 mm 1 mps 672 mmHg 35%
    14:00 +5°C° 0 mm 1 mps 672 mmHg 41%
    15:00 +5°C° 0 mm 1 mps 671 mmHg 47%
    16:00 +4°C° 0 mm 1 mps 671 mmHg 52%
    17:00 +3°C° 0 mm 1 mps 670 mmHg 55%
    18:00 +1°C° 0 mm 1 mps 670 mmHg 57%
    19:00 0°C° 0 mm 1 mps 670 mmHg 59%
    20:00 0°C° 0 mm 1 mps 670 mmHg 59%
    21:00 0°C° 0 mm 1 mps 669 mmHg 58%
    22:00 0°C° 0 mm 1 mps 669 mmHg 57%
    23:00 0°C° 0 mm 1 mps 669 mmHg 56%

    26 January, Friday

    Time Temperature Precipitation Wind Pressure Humidity
    00:00 0°C° 0 mm 1 mps 669 mmHg 54%
    01:00 0°C° 0 mm 1 mps 669 mmHg 53%
    02:00 0°C° 0 mm 1 mps 668 mmHg 52%
    03:00 -1°C° 0 mm 0 mps 668 mmHg 50%
    04:00 -1°C° 0 mm 0 mps 668 mmHg 49%
    05:00 0°C° 0 mm 1 mps 668 mmHg 49%
    06:00 0°C° 0 mm 1 mps 668 mmHg 49%
    07:00 0°C° 0 mm 1 mps 668 mmHg 48%
    08:00 +1°C° 0 mm 1 mps 669 mmHg 46%
    09:00 +3°C° 0 mm 1 mps 670 mmHg 43%
    10:00 +5°C° 0 mm 1 mps 670 mmHg 41%
    11:00 +6°C° 0 mm 1 mps 670 mmHg 41%
    12:00 +7°C° 0 mm 1 mps 670 mmHg 41%
    13:00 +7°C° 0 mm 1 mps 670 mmHg 42%
    14:00 +7°C° 0 mm 1 mps 670 mmHg 47%
    15:00 +6°C° 0 mm 1 mps 670 mmHg 53%
    16:00 +5°C° 0 mm 1 mps 670 mmHg 59%
    17:00 +4°C° 0 mm 1 mps 670 mmHg 63%
    18:00 +3°C° 0 mm 1 mps 670 mmHg 67%
    19:00 +1°C° 0 mm 1 mps 670 mmHg 71%
    20:00 +1°C° 0 mm 1 mps 670 mmHg 72%
    21:00 +1°C° 0 mm 1 mps 670 mmHg 73%
    22:00 +1°C° 0 mm 1 mps 670 mmHg 74%
    23:00 +1°C° 0 mm 1 mps 670 mmHg 74%

    27 January, Saturday

    Time Temperature Precipitation Wind Pressure Humidity
    00:00 0°C° 0 mm 1 mps 670 mmHg 74%
    01:00 0°C° 0 mm 1 mps 670 mmHg 74%
    02:00 0°C° 0 mm 1 mps 670 mmHg 73%
    03:00 0°C° 0 mm 1 mps 670 mmHg 73%
    04:00 0°C° 0 mm 1 mps 670 mmHg 72%
    05:00 0°C° 0 mm 1 mps 670 mmHg 71%
    06:00 0°C° 0 mm 1 mps 670 mmHg 70%
    07:00 0°C° 0 mm 1 mps 670 mmHg 68%
    08:00 +2°C° 0 mm 1 mps 671 mmHg 63%
    09:00 +4°C° 0 mm 1 mps 671 mmHg 58%
    10:00 +6°C° 0 mm 1 mps 672 mmHg 53%
    11:00 +7°C° 0 mm 1 mps 672 mmHg 53%
    12:00 +7°C° 0 mm 1 mps 672 mmHg 53%
    13:00 +8°C° 0 mm 1 mps 672 mmHg 53%
    14:00 +7°C° 0 mm 1 mps 672 mmHg 58%
    15:00 +7°C° 0 mm 1 mps 672 mmHg 63%
    16:00 +6°C° 0 mm 1 mps 672 mmHg 68%
    17:00 +5°C° 0 mm 1 mps 672 mmHg 72%
    18:00 +3°C° 0 mm 0 mps 672 mmHg 75%
    19:00 +2°C° 0 mm 0 mps 671 mmHg 79%
    20:00 +1°C° 0 mm 0 mps 672 mmHg 79%
    21:00 +1°C° 0 mm 0 mps 672 mmHg 79%
    22:00 +2°C° 0 mm 1 mps 672 mmHg 79%
    23:00 +2°C° 0 mm 1 mps 672 mmHg 78%
    Show more